Location: Bay Shore Mobile Home Park
(38.5762°N, 75.0841°W)
Time: 19:09:56
(UTC+00:00)

ATLAS 2AS CENTAUR R/B - Pass Details

Date: 15 November 2025
Orbit: 1047 x 1163 km, 63.7° (Epoch: 08 December)

Event Time Altitude Azimuth Distance (km) Brightness Sun altitude
Rises 23:19:42 0° 334° (NNW) 3,847 5.8 -18.2°
Reaches altitude 10° 23:24:04 10° 360° (N) 2,875 4.9 -19.0°
Maximum altitude 23:27:17 14° 29° (NNE) 2,602 4.4 -19.6°
Enters shadow 23:27:19 14° 29° (NNE) 2,602 4.4 -19.6°
